Flag for India Weather past 2 weeks in Pratapgarh, Uttar Pradesh, India

Now
111 °F

Clear.


Feels Like: 108 °F
Forecast: 87 / 110 °F
Wind: 15 mph from West

Location: Varanasi / Babatpur

Current Time: May 22, 2015 at 2:58:46 PM

Latest Report: May 22, 2015 at 2:00 PM


Visibility: 4 mi

Pressure: 29.47 "Hg

Humidity: 13%

Dew point: 50 °F

Location of PratapgarhLocation

Historic Weather in Pratapgarh — Graph

°F

Pratapgarh temperature yesterday

Maximum temperature yesterday: 109 °F (at 2:00 PM)
Minimum temperature yesterday: 82 °F (at 5:00 AM)
Average temperature yesterday: 97 °F

Past Weeks' High & Low Weather Summary

 TemperatureHumidityPressure
High111 °F (May 22, 1:00 PM)75% (May 9, 12:00 AM)29.80 "Hg (May 9, 12:00 AM)
Low81 °F (May 13, 6:00 AM)12% (May 22, 1:00 PM)29.36 "Hg (May 18, 6:00 PM)
Average94 °F45%29.63 "Hg
* Reported May 7 1:00 PM — May 22 1:00 PM, Pratapgarh, Weather by CustomWeather, © 2015

Note: Actual official high and low records may vary slightly from our data, if they occured in-between our weather recording intervals... More about our weather records

Advertising

Pratapgarh weather history for previous 24 hours

 ConditionsComfort  
Time TempWeatherWind HumidityBarometerVisibility
1:00 PM
Fri, May 22
111 °FClear.10 mph12%29.50 "Hg4 mi
12:00 PM109 °FHaze.9 mph14%29.53 "Hg3 mi
10:00 AM102 °FHaze.14 mph18%29.56 "Hg2 mi
9:00 AM97 °FHaze.6 mph23%29.56 "Hg2 mi
8:00 AM91 °FHaze.3 mph28%29.56 "Hg2 mi
7:00 AM84 °FHaze.3 mph35%29.53 "Hg2 mi
6:00 AM82 °FHaze.6 mph40%29.50 "Hg2 mi
5:00 AM81 °FHaze.5 mph48%29.50 "Hg2 mi
4:00 AM81 °FHaze.5 mph48%29.50 "Hg2 mi
12:00 AM93 °FHaze.3 mph36%29.53 "Hg3 mi
11:00 PM
Thu, May 21
93 °FHaze.6 mph36%29.53 "Hg3 mi
10:00 PM93 °FHaze.5 mph36%29.53 "Hg3 mi
9:00 PM95 °FHaze.5 mph32%29.53 "Hg3 mi
8:00 PM97 °FHaze.3 mph30%29.50 "Hg3 mi
7:00 PM100 °FHaze.3 mph25%29.50 "Hg3 mi
5:00 PM108 °FClear.14 mph23%29.47 "Hg4 mi
4:00 PM108 °FClear.16 mph22%29.50 "Hg4 mi
3:00 PM109 °FClear.N/A19%29.53 "Hg4 mi
2:00 PM109 °FClear.16 mph19%29.53 "Hg4 mi
Weather by CustomWeather, © 2015

See weather overviewHow to use our weather pages